Weather History for Scappoose, OR

Change the Weather History Date:

Wednesday, October 23, 2013

  Actual Average Record
Temperature  
Mean Temperature 53 °F -  
Max Temperature 69 °F - 75 °F (2007)
Min Temperature 38 °F - 35 °F (2008)
Degree Days  
Heating Degree Days 11    
Month to date heating degree days 294  
Since 1 July heating degree days 446  
Cooling Degree Days 0    
Month to date cooling degree days 0  
Year to date cooling degree days 396  
Growing Degree Days 3 (Base 50)    
Moisture  
Dew Point 44 °F    
Average Humidity 77    
Maximum Humidity 100    
Minimum Humidity 53    
Precipitation  
Precipitation 0.00 in - 0.94 in (2010)
Month to date precipitation 0.63  
Year to date precipitation 22.28  
Sea Level Pressure  
Sea Level Pressure 29.99 in    
Wind  
Wind Speed 0 mph (West)    
Max Wind Speed 5 mph    
Max Gust Speed 6 mph    
Visibility 2 miles    
Events Fog    
T = Trace of Precipitation, MM = Missing Value Source: NWS Daily Summary

Daily Weather History Graph

Daily Weather History Graph

Search for Another Location

Airport:

Trip Planner

Search our weather history database for the weather conditions in past years. The results will help you decide how hot, cold, wet, or windy it might be!

Date:

Astronomy

Oct. 23, 2013 Rise Set
Actual Time 7:39 AM PDT 6:11 PM PDT
Civil Twilight 7:08 AM PDT 6:41 PM PDT
Nautical Twilight 6:34 AM PDT 7:16 PM PDT
Astronomical Twilight 5:59 AM PDT 7:50 PM PDT
Moon 9:39 PM PDT (10/23) 12:08 PM PDT (10/23)
Length of Visible Light 11h 32m
Length of Day
10h 31m
Waning Gibbous, 78% of the Moon is Illuminated
Oct 23
Waning Gibbous
Oct 26
Last Quarter
Nov 3
New
Nov 9
First Quarter
Nov 17
Full

Hourly Weather History & Observations

Time (PDT) Temp. Windchill Dew Point Humidity Pressure Visibility Wind Dir Wind Speed Gust Speed Precip Events Conditions
12:08 AM 44.6 °F - 44.6 °F 100% 29.99 in 2.0 mi Calm Calm - N/A   Clear
12:17 AM 46.4 °F - 44.6 °F 93% 29.99 in 9.0 mi Calm Calm - N/A   Clear
12:53 AM 46.9 °F - 46.0 °F 97% 29.99 in 6.0 mi Calm Calm - 0.01 in   Clear
12:58 AM 46.4 °F - 44.6 °F 93% 29.99 in 1.8 mi Calm Calm - N/A   Clear
1:21 AM 44.6 °F - 44.6 °F 100% 29.99 in 3.0 mi Calm Calm - N/A   Clear
1:39 AM 44.6 °F - 42.8 °F 93% 29.99 in 1.0 mi Calm Calm - N/A   Mist
1:46 AM 44.6 °F - 42.8 °F 93% 29.99 in 0.5 mi Calm Calm - N/A Fog Fog
1:50 AM 44.6 °F - 42.8 °F 93% 29.99 in 1.8 mi Calm Calm - N/A   Clear
1:53 AM 44.1 °F - 43.0 °F 96% 29.99 in 6.0 mi Calm Calm - N/A   Clear
1:59 AM 44.6 °F - 42.8 °F 93% 29.99 in 0.8 mi Calm Calm - N/A   Clear
2:16 AM 42.8 °F - 42.8 °F 100% 30.00 in 1.5 mi Calm Calm - N/A   Clear
2:18 AM 44.6 °F - 42.8 °F 93% 30.00 in 3.0 mi Calm Calm - N/A   Clear
2:24 AM 44.6 °F - 42.8 °F 93% 30.00 in 1.8 mi Calm Calm - N/A   Clear
2:42 AM 42.8 °F - 42.8 °F 100% 30.00 in 1.2 mi Calm Calm - N/A   Partly Cloudy
2:53 AM 42.1 °F 40.2 °F 41.0 °F 96% 30.00 in 2.0 mi West 3.5 mph - N/A   Clear
3:15 AM 41.0 °F 39.0 °F 39.2 °F 93% 29.99 in 1.5 mi WSW 3.5 mph - N/A   Clear
3:19 AM 42.8 °F - 41.0 °F 93% 29.99 in 4.0 mi Calm Calm - N/A   Clear
3:32 AM 42.8 °F - 42.8 °F 100% 29.99 in 1.8 mi Calm Calm - N/A   Clear
3:42 AM 42.8 °F - 41.0 °F 93% 29.99 in 1.0 mi Calm Calm - N/A   Mist
3:49 AM 42.8 °F - 39.2 °F 87% 29.99 in 0.2 mi Calm Calm - N/A Fog Fog
3:53 AM 43.0 °F - 39.9 °F 89% 29.99 in 0.5 mi Calm Calm - N/A Fog Fog
4:14 AM 42.8 °F - 42.8 °F 100% 29.99 in 1.0 mi Calm Calm - N/A   Clear
4:27 AM 41.0 °F - 39.2 °F 93% 29.99 in 0.8 mi Calm Calm - N/A   Mist
4:36 AM 39.2 °F - 39.2 °F 100% 29.99 in 0.2 mi Calm Calm - N/A Fog Fog
4:53 AM 42.1 °F - 39.9 °F 92% 29.99 in 0.5 mi Calm Calm - N/A Fog Fog
4:56 AM 42.8 °F - 41.0 °F 93% 29.99 in 1.5 mi Calm Calm - N/A   Partly Cloudy
4:58 AM 42.8 °F - 41.0 °F 93% 29.99 in 4.0 mi Calm Calm - N/A   Partly Cloudy
5:04 AM 42.8 °F - 39.2 °F 87% 29.99 in 1.8 mi Calm Calm - N/A   Clear
5:18 AM 42.8 °F - 41.0 °F 93% 29.99 in 0.2 mi Calm Calm - N/A Fog Fog
5:29 AM 42.8 °F - 41.0 °F 93% 29.99 in 1.0 mi Calm Calm - N/A   Clear
5:38 AM 41.0 °F - 39.2 °F 93% 29.99 in 1.0 mi Calm Calm - N/A   Mist
5:44 AM 41.0 °F - 39.2 °F 93% 29.99 in 0.2 mi Calm Calm - N/A Fog Fog
5:53 AM 41.0 °F - 39.0 °F 93% 30.00 in 0.5 mi Calm Calm - N/A Fog Fog
6:06 AM 41.0 °F - 39.2 °F 93% 30.00 in 1.0 mi Calm Calm - N/A   Mist
6:15 AM 41.0 °F - 39.2 °F 93% 30.00 in 0.5 mi Calm Calm - N/A Fog Fog
6:31 AM 41.0 °F - 39.2 °F 93% 30.00 in 2.0 mi Calm Calm - N/A   Mostly Cloudy
6:39 AM 39.2 °F - 37.4 °F 93% 30.00 in 8.0 mi Calm Calm - N/A   Overcast
6:50 AM 39.2 °F - 37.4 °F 93% 30.00 in 1.2 mi Calm Calm - N/A   Overcast
6:53 AM 37.9 °F - 37.0 °F 97% 30.00 in 1.2 mi Calm Calm - N/A   Overcast
7:11 AM 39.2 °F - 37.4 °F 93% 30.00 in 0.5 mi Calm Calm - N/A Fog Fog
7:40 AM 41.0 °F - 39.2 °F 93% 30.00 in 2.0 mi Calm Calm - N/A   Overcast
7:53 AM 42.1 °F - 39.9 °F 92% 30.01 in 0.5 mi Calm Calm - N/A Fog Fog
8:00 AM 44.6 °F - 42.8 °F 93% 30.00 in 0.2 mi Calm Calm - N/A Fog Fog
8:53 AM 46.0 °F - 45.0 °F 96% 30.01 in 0.2 mi Calm Calm - N/A Fog Fog
9:53 AM 46.9 °F - 46.0 °F 97% 30.02 in 0.2 mi Calm Calm - N/A Fog Fog
10:19 AM 46.4 °F - 46.4 °F 100% 30.02 in 0.2 mi Calm Calm - 0.01 in Fog Fog
10:53 AM 48.0 °F - 46.9 °F 96% 30.02 in 0.2 mi Calm Calm - 0.01 in Fog Fog
11:53 AM 50.0 °F - 48.9 °F 96% 30.01 in 0.2 mi Calm Calm - N/A Fog Fog
12:07 PM 51.8 °F - 50.0 °F 94% 30.01 in 0.5 mi Calm Calm - N/A Fog Fog
12:21 PM 51.8 °F - 51.8 °F 100% 30.01 in 1.5 mi Calm Calm - N/A   Overcast
12:30 PM 53.6 °F - 51.8 °F 94% 30.00 in 3.0 mi Calm Calm - N/A   Overcast
12:49 PM 55.4 °F - 51.8 °F 88% 29.99 in 9.0 mi Calm Calm - N/A   Scattered Clouds
12:53 PM 57.0 °F - 52.0 °F 83% 29.99 in 9.0 mi Calm Calm - N/A   Partly Cloudy
1:53 PM 62.1 °F - 53.1 °F 72% 29.97 in 8.0 mi Calm Calm - N/A   Clear
2:53 PM 66.0 °F - 53.1 °F 63% 29.95 in 10.0 mi Calm Calm - N/A   Clear
3:53 PM 69.1 °F - 54.0 °F 58% 29.95 in 10.0 mi Calm Calm - N/A   Clear
4:53 PM 69.1 °F - 51.1 °F 53% 29.94 in 10.0 mi Calm Calm - N/A   Clear
5:53 PM 62.1 °F - 54.0 °F 75% 29.94 in 10.0 mi Calm Calm - N/A   Clear
6:53 PM 55.9 °F - 53.1 °F 90% 29.95 in 10.0 mi Calm Calm - N/A   Clear
7:53 PM 53.1 °F - 52.0 °F 96% 29.96 in 9.0 mi Calm Calm - N/A   Clear
8:44 PM 51.8 °F - 51.8 °F 100% 29.96 in 2.0 mi Calm Calm - N/A   Clear
8:51 PM 51.8 °F - 50.0 °F 94% 29.96 in 1.0 mi Calm Calm - N/A   Mist
8:53 PM 50.0 °F - 48.9 °F 96% 29.96 in 0.5 mi Calm Calm - N/A Fog Fog
9:03 PM 51.8 °F - 48.2 °F 88% 29.96 in 0.2 mi Calm Calm - N/A Fog Fog
9:23 PM 50.0 °F - 48.2 °F 94% 29.96 in 0.5 mi Calm Calm - N/A Fog Fog
9:53 PM 48.0 °F - 46.9 °F 96% 29.97 in 0.8 mi Calm Calm - N/A   Mist
10:16 PM 48.2 °F - 46.4 °F 93% 29.98 in 0.8 mi Calm Calm - N/A   Clear
10:35 PM 48.2 °F - 46.4 °F 93% 29.98 in 0.2 mi Calm Calm - N/A Fog Fog
10:53 PM 48.0 °F - 46.0 °F 93% 29.98 in 1.0 mi Calm Calm - N/A   Mist
11:06 PM 48.2 °F - 46.4 °F 93% 29.98 in 1.5 mi Calm Calm - N/A   Clear
11:37 PM 46.4 °F - 46.4 °F 100% 29.99 in 3.0 mi Calm Calm - N/A   Clear
11:51 PM 46.4 °F - 46.4 °F 100% 29.99 in 1.8 mi Calm Calm - N/A   Clear
11:53 PM 46.9 °F - 46.0 °F 97% 29.99 in 1.2 mi Calm Calm - N/A   Clear